QPF
0.12 0.10 0.09 0.09 0.09 0.08 0.09 0.14 0.15 0.18 0.19 0.19 0.18 0.19 0.20 0.16 0.13 0.12 0.10 0.11 0.18 0.17 0.20 0.23 0.21 0.19 0.20 0.17 0.15 0.12 0.10 0.08 0.05 0.04 0.03 0.03 0.03 0.04 0.03 0.02 0.02 0.02 0.02
0.18 0.14 0.11 0.10 0.11 0.10 0.11 0.12 0.12 0.14 0.16 0.18 0.18 0.19 0.15 0.12 0.11 0.12 0.12 0.11 0.12 0.16 0.18 0.21 0.23 0.24 0.25 0.23 0.20 0.16 0.12 0.10 0.08 0.06 0.04 0.04 0.04 0.05 0.05 0.04 0.03 0.03 0.02
0.18 0.13 0.11 0.10 0.09 0.08 0.08 0.08 0.11 0.16 0.17 0.15 0.13 0.12 0.09 0.06 0.06 0.07 0.09 0.10 0.07 0.09 0.14 0.20 0.25 0.24 0.25 0.26 0.24 0.21 0.15 0.11 0.09 0.07 0.05 0.04 0.04 0.05 0.06 0.06 0.04 0.04 0.03
0.19 0.13 0.10 0.08 0.06 0.06 0.09 0.09 0.09 0.08 0.07 0.08 0.07 0.07 0.05 0.03 0.03 0.02 0.03 0.06 0.06 0.05 0.08 0.16 0.19 0.19 0.20 0.23 0.28 0.28 0.24 0.16 0.11 0.08 0.07 0.06 0.06 0.06 0.06 0.07 0.06 0.04 0.03
0.18 0.14 0.11 0.08 0.05 0.04 0.04 0.04 0.03 0.03 0.03 0.03 0.03 0.03 0.02 0.01 0.01 0.02 0.02 0.03 0.04 0.05 0.04 0.07 0.13 0.15 0.17 0.22 0.26 0.28 0.25 0.21 0.15 0.12 0.10 0.08 0.08 0.07 0.06 0.07 0.08 0.06 0.04
0.14 0.11 0.11 0.07 0.04 0.03 0.03 0.03 0.03 0.03 0.02 0.03 0.03 0.03 0.02 0.01 0.01 0.01 0.01 0.01 0.01 0.02 0.04 0.05 0.06 0.08 0.12 0.13 0.17 0.21 0.24 0.23 0.19 0.16 0.14 0.11 0.10 0.08 0.07 0.06 0.07 0.07 0.06
0.09 0.06 0.03 0.01 0.01 0.01 0.01 0.01 0.01 0.01 0.01 0.02 0.02 0.01 0.01 0.01 0.00 0.00 0.00 0.00 0.00 0.01 0.02 0.05 0.05 0.05 0.06 0.07 0.10 0.14 0.18 0.22 0.20 0.19 0.17 0.15 0.14 0.11 0.07 0.06 0.06 0.06 0.06
0.05 0.03 0.02 0.01 0.01 0.01 0.00 0.01 0.01 0.01 0.01 0.01 0.00 0.00 0.00 0.00 0.00 0.00 0.00 0.01 0.00 0.01 0.01 0.03 0.05 0.04 0.05 0.05 0.05 0.07 0.11 0.16 0.19 0.18 0.18 0.17 0.14 0.12 0.10 0.09 0.07 0.06 0.06
0.05 0.04 0.03 0.02 0.01 0.01 0.01 0.01 0.01 0.01 0.00 0.00 0.00 0.00 0.00 0.00 0.00 0.00 0.00 0.00 0.00 0.00 0.00 0.01 0.02 0.03 0.05 0.05 0.04 0.04 0.05 0.08 0.12 0.15 0.18 0.16 0.13 0.11 0.10 0.10 0.10 0.08 0.06
0.07 0.06 0.05 0.04 0.03 0.02 0.02 0.02 0.01 0.00 0.00 0.00 0.00 0.00 0.00 0.00 0.00 0.00 0.00 0.00 0.00 0.00 0.00 0.01 0.01 0.01 0.03 0.03 0.03 0.03 0.03 0.04 0.07 0.10 0.13 0.13 0.12 0.10 0.10 0.10 0.12 0.12 0.08
0.12 0.11 0.09 0.08 0.06 0.05 0.04 0.04 0.03 0.02 0.01 0.00 0.00 0.00 0.00 0.00 0.00 0.00 0.00 0.00 0.00 0.00 0.00 0.00 0.00 0.01 0.02 0.02 0.02 0.02 0.03 0.03 0.04 0.05 0.08 0.09 0.09 0.09 0.07 0.08 0.13 0.17 0.14
0.11 0.10 0.08 0.07 0.07 0.06 0.06 0.05 0.04 0.03 0.02 0.01 0.01 0.01 0.00 0.00 0.00 0.00 0.00 0.00 0.00 0.00 0.00 0.00 0.00 0.00 0.01 0.02 0.02 0.01 0.02 0.02 0.02 0.03 0.04 0.05 0.06 0.06 0.06 0.07 0.12 0.17 0.18
0.06 0.05 0.06 0.06 0.06 0.06 0.05 0.04 0.04 0.03 0.03 0.02 0.01 0.01 0.01 0.00 0.00 0.00 0.00 0.00 0.00 0.00 0.00 0.00 0.00 0.00 0.00 0.00 0.00 0.01 0.01 0.02 0.03 0.03 0.02 0.02 0.03 0.04 0.05 0.06 0.09 0.13 0.16
0.04 0.03 0.04 0.04 0.04 0.04 0.04 0.04 0.04 0.04 0.03 0.02 0.01 0.01 0.01 0.00 0.00 0.00 0.00 0.00 0.00 0.00 0.00 0.00 0.00 0.00 0.00 0.00 0.00 0.01 0.01 0.01 0.01 0.01 0.01 0.01 0.02 0.03 0.04 0.06 0.08 0.09 0.12
0.01 0.02 0.02 0.03 0.03 0.04 0.04 0.03 0.03 0.03 0.03 0.02 0.01 0.01 0.00 0.00 0.00 0.00 0.00 0.01 0.01 0.00 0.00 0.00 0.00 0.00 0.00 0.00 0.00 0.01 0.01 0.01 0.01 0.01 0.01 0.02 0.02 0.03 0.05 0.06 0.08 0.09 0.10
0.00 0.00 0.00 0.01 0.01 0.02 0.02 0.03 0.03 0.03 0.02 0.02 0.02 0.02 0.01 0.01 0.01 0.01 0.01 0.01 0.01 0.01 0.00 0.00 0.00 0.00 0.00 0.00 0.01 0.01 0.01 0.01 0.01 0.02 0.02 0.02 0.03 0.05 0.06 0.07 0.09 0.10 0.10
0.00 0.00 0.00 0.00 0.00 0.00 0.01 0.02 0.02 0.02 0.02 0.02 0.02 0.02 0.01 0.01 0.01 0.01 0.01 0.01 0.01 0.01 0.01 0.00 0.00 0.00 0.00 0.00 0.00 0.00 0.01 0.01 0.01 0.01 0.02 0.02 0.03 0.04 0.07 0.09 0.10 0.11 0.11
0.00 0.00 0.00 0.00 0.00 0.00 0.00 0.00 0.01 0.02 0.02 0.01 0.01 0.01 0.01 0.01 0.01 0.01 0.01 0.01 0.00 0.00 0.01 0.00 0.00 0.00 0.00 0.00 0.01 0.00 0.00 0.01 0.02 0.02 0.02 0.03 0.03 0.04 0.06 0.09 0.11 0.12 0.12
0.00 0.00 0.00 0.00 0.00 0.00 0.00 0.00 0.00 0.01 0.01 0.01 0.01 0.01 0.01 0.01 0.01 0.01 0.00 0.00 0.00 0.00 0.01 0.01 0.01 0.00 0.01 0.01 0.01 0.01 0.01 0.01 0.02 0.03 0.03 0.03 0.05 0.06 0.07 0.10 0.12 0.13 0.13
0.00 0.00 0.00 0.00 0.00 0.00 0.00 0.00 0.00 0.00 0.01 0.01 0.01 0.01 0.01 0.01 0.01 0.01 0.01 0.01 0.00 0.01 0.01 0.01 0.01 0.01 0.01 0.01 0.02 0.02 0.02 0.02 0.02 0.03 0.05 0.05 0.06 0.09 0.10 0.10 0.12 0.13 0.14
0.00 0.00 0.00 0.00 0.00 0.00 0.00 0.00 0.00 0.01 0.01 0.01 0.01 0.01 0.01 0.02 0.01 0.01 0.01 0.01 0.01 0.01 0.01 0.01 0.01 0.01 0.01 0.02 0.02 0.02 0.02 0.02 0.02 0.03 0.05 0.07 0.07 0.07 0.09 0.11 0.12 0.11 0.12
0.00 0.00 0.00 0.00 0.00 0.00 0.00 0.00 0.00 0.00 0.01 0.01 0.01 0.01 0.02 0.02 0.02 0.01 0.01 0.01 0.01 0.01 0.01 0.01 0.01 0.01 0.01 0.01 0.01 0.01 0.02 0.02 0.03 0.03 0.04 0.08 0.09 0.08 0.09 0.09 0.10 0.09 0.08
0.01 0.01 0.00 0.00 0.00 0.00 0.00 0.00 0.00 0.00 0.00 0.00 0.00 0.01 0.02 0.02 0.03 0.02 0.02 0.02 0.02 0.02 0.02 0.01 0.01 0.01 0.01 0.01 0.02 0.02 0.02 0.02 0.02 0.02 0.03 0.06 0.09 0.09 0.08 0.09 0.10 0.09 0.07
0.01 0.01 0.00 0.00 0.00 0.00 0.00 0.00 0.00 0.00 0.00 0.00 0.00 0.01 0.02 0.03 0.03 0.03 0.03 0.03 0.04 0.03 0.02 0.01 0.01 0.01 0.02 0.03 0.03 0.03 0.03 0.03 0.04 0.04 0.04 0.05 0.07 0.08 0.07 0.06 0.08 0.08 0.08
0.02 0.01 0.00 0.00 0.00 0.00 0.00 0.00 0.00 0.00 0.00 0.00 0.00 0.02 0.03 0.03 0.03 0.04 0.03 0.03 0.04 0.06 0.04 0.03 0.02 0.02 0.03 0.04 0.04 0.05 0.04 0.04 0.06 0.07 0.05 0.05 0.05 0.06 0.06 0.05 0.04 0.05 0.06
0.01 0.01 0.00 0.00 0.00 0.00 0.00 0.00 0.00 0.00 0.00 0.00 0.00 0.02 0.05 0.06 0.06 0.05 0.04 0.03 0.03 0.05 0.05 0.03 0.02 0.03 0.03 0.04 0.06 0.05 0.04 0.03 0.03 0.06 0.06 0.04 0.04 0.04 0.05 0.06 0.04 0.02 0.02
MSLP
1012.49 1012.55 1012.53 1012.46 1012.37 1012.30 1012.27 1012.28 1012.33 1012.40 1012.49 1012.56 1012.62 1012.67 1012.71 1012.75 1012.82 1012.92 1013.05 1013.20 1013.38 1013.57 1013.76 1013.95 1014.14 1014.33 1014.53 1014.74 1014.96 1015.21 1015.48 1015.78 1016.12 1016.49 1016.89 1017.33 1017.78 1018.23 1018.68 1019.09 1019.46 1019.79 1020.08
1011.98 1012.09 1012.11 1012.09 1012.03 1011.98 1011.96 1011.97 1012.01 1012.08 1012.15 1012.22 1012.27 1012.31 1012.33 1012.35 1012.38 1012.43 1012.51 1012.63 1012.78 1012.96 1013.17 1013.39 1013.62 1013.85 1014.09 1014.32 1014.55 1014.79 1015.04 1015.31 1015.63 1015.99 1016.39 1016.83 1017.31 1017.79 1018.27 1018.71 1019.12 1019.47 1019.78
1011.31 1011.49 1011.60 1011.65 1011.67 1011.68 1011.69 1011.73 1011.79 1011.87 1011.95 1012.03 1012.08 1012.11 1012.12 1012.10 1012.09 1012.08 1012.10 1012.16 1012.26 1012.41 1012.61 1012.84 1013.10 1013.36 1013.62 1013.87 1014.11 1014.35 1014.58 1014.83 1015.12 1015.46 1015.85 1016.29 1016.78 1017.28 1017.78 1018.26 1018.70 1019.10 1019.45
1010.55 1010.82 1011.03 1011.20 1011.32 1011.41 1011.50 1011.59 1011.69 1011.80 1011.90 1011.98 1012.04 1012.07 1012.06 1012.01 1011.95 1011.88 1011.83 1011.81 1011.85 1011.95 1012.11 1012.33 1012.58 1012.86 1013.13 1013.40 1013.64 1013.87 1014.08 1014.31 1014.58 1014.89 1015.26 1015.69 1016.17 1016.68 1017.20 1017.71 1018.19 1018.63 1019.04
1009.81 1010.18 1010.50 1010.78 1011.01 1011.21 1011.38 1011.54 1011.68 1011.82 1011.95 1012.05 1012.12 1012.15 1012.13 1012.06 1011.95 1011.83 1011.71 1011.61 1011.57 1011.60 1011.70 1011.87 1012.10 1012.36 1012.63 1012.89 1013.13 1013.34 1013.54 1013.75 1013.98 1014.26 1014.60 1015.00 1015.47 1015.97 1016.51 1017.04 1017.56 1018.05 1018.51
1009.19 1009.64 1010.06 1010.44 1010.78 1011.07 1011.31 1011.53 1011.72 1011.89 1012.04 1012.16 1012.25 1012.29 1012.27 1012.20 1012.07 1011.90 1011.72 1011.55 1011.43 1011.38 1011.40 1011.51 1011.68 1011.89 1012.13 1012.37 1012.59 1012.78 1012.96 1013.14 1013.34 1013.59 1013.89 1014.26 1014.69 1015.19 1015.71 1016.26 1016.81 1017.34 1017.86
1008.79 1009.28 1009.76 1010.21 1010.61 1010.96 1011.26 1011.52 1011.74 1011.93 1012.11 1012.25 1012.36 1012.43 1012.43 1012.37 1012.24 1012.06 1011.84 1011.62 1011.43 1011.30 1011.24 1011.25 1011.35 1011.50 1011.68 1011.87 1012.05 1012.22 1012.37 1012.52 1012.69 1012.90 1013.16 1013.49 1013.89 1014.35 1014.86 1015.40 1015.97 1016.53 1017.09
1008.65 1009.13 1009.62 1010.08 1010.50 1010.87 1011.19 1011.46 1011.69 1011.89 1012.08 1012.25 1012.39 1012.50 1012.54 1012.52 1012.43 1012.26 1012.04 1011.79 1011.55 1011.35 1011.21 1011.14 1011.14 1011.21 1011.32 1011.44 1011.57 1011.70 1011.81 1011.93 1012.06 1012.23 1012.45 1012.73 1013.09 1013.51 1013.99 1014.52 1015.09 1015.67 1016.25
1008.75 1009.17 1009.61 1010.03 1010.42 1010.76 1011.06 1011.30 1011.52 1011.72 1011.92 1012.11 1012.29 1012.45 1012.56 1012.61 1012.57 1012.45 1012.26 1012.03 1011.77 1011.52 1011.31 1011.16 1011.08 1011.05 1011.07 1011.12 1011.18 1011.25 1011.32 1011.39 1011.49 1011.61 1011.79 1012.03 1012.34 1012.72 1013.16 1013.67 1014.21 1014.79 1015.38
1009.03 1009.35 1009.69 1010.02 1010.33 1010.61 1010.84 1011.05 1011.23 1011.42 1011.62 1011.83 1012.06 1012.27 1012.46 1012.59 1012.64 1012.60 1012.47 1012.27 1012.02 1011.76 1011.51 1011.30 1011.13 1011.01 1010.94 1010.91 1010.90 1010.90 1010.91 1010.94 1010.99 1011.08 1011.21 1011.41 1011.67 1012.01 1012.41 1012.87 1013.38 1013.94 1014.53
1009.38 1009.57 1009.79 1010.01 1010.22 1010.40 1010.56 1010.71 1010.85 1011.01 1011.20 1011.43 1011.70 1011.97 1012.23 1012.45 1012.59 1012.64 1012.59 1012.46 1012.25 1012.00 1011.74 1011.48 1011.25 1011.06 1010.91 1010.79 1010.70 1010.63 1010.58 1010.55 1010.56 1010.60 1010.70 1010.85 1011.07 1011.36 1011.71 1012.14 1012.61 1013.14 1013.70
1009.70 1009.77 1009.87 1009.97 1010.07 1010.16 1010.24 1010.32 1010.42 1010.55 1010.73 1010.97 1011.26 1011.58 1011.90 1012.18 1012.41 1012.55 1012.58 1012.52 1012.38 1012.17 1011.92 1011.65 1011.39 1011.14 1010.92 1010.72 1010.55 1010.41 1010.29 1010.21 1010.16 1010.16 1010.21 1010.33 1010.51 1010.75 1011.07 1011.45 1011.89 1012.37 1012.90
1009.91 1009.88 1009.88 1009.88 1009.89 1009.90 1009.91 1009.94 1009.99 1010.10 1010.26 1010.49 1010.78 1011.12 1011.47 1011.80 1012.08 1012.29 1012.40 1012.41 1012.33 1012.18 1011.97 1011.72 1011.45 1011.18 1010.91 1010.66 1010.42 1010.20 1010.02 1009.87 1009.77 1009.72 1009.73 1009.80 1009.94 1010.15 1010.43 1010.77 1011.17 1011.62 1012.11
1009.96 1009.87 1009.80 1009.74 1009.69 1009.65 1009.61 1009.60 1009.63 1009.70 1009.84 1010.04 1010.31 1010.63 1010.97 1011.30 1011.60 1011.84 1012.00 1012.08 1012.07 1011.98 1011.83 1011.63 1011.39 1011.12 1010.83 1010.54 1010.25 1009.98 1009.72 1009.51 1009.35 1009.25 1009.21 1009.25 1009.36 1009.53 1009.78 1010.09 1010.45 1010.86 1011.33
1009.81 1009.71 1009.62 1009.54 1009.47 1009.41 1009.37 1009.34 1009.34 1009.39 1009.49 1009.65 1009.86 1010.12 1010.41 1010.70 1010.98 1011.22 1011.40 1011.52 1011.57 1011.56 1011.48 1011.35 1011.16 1010.92 1010.65 1010.35 1010.03 1009.71 1009.41 1009.13 1008.92 1008.76 1008.68 1008.68 1008.75 1008.90 1009.12 1009.39 1009.73 1010.12 1010.55
1009.49 1009.41 1009.35 1009.29 1009.24 1009.20 1009.16 1009.13 1009.13 1009.14 1009.20 1009.30 1009.43 1009.61 1009.81 1010.03 1010.24 1010.44 1010.62 1010.76 1010.87 1010.92 1010.93 1010.88 1010.77 1010.60 1010.37 1010.08 1009.76 1009.42 1009.07 1008.76 1008.49 1008.29 1008.17 1008.13 1008.18 1008.30 1008.49 1008.74 1009.06 1009.42 1009.82
1009.00 1008.99 1008.98 1008.97 1008.97 1008.97 1008.96 1008.95 1008.94 1008.93 1008.94 1008.97 1009.02 1009.09 1009.19 1009.30 1009.43 1009.57 1009.72 1009.86 1010.01 1010.13 1010.22 1010.27 1010.26 1010.17 1010.00 1009.76 1009.46 1009.12 1008.76 1008.42 1008.12 1007.89 1007.74 1007.68 1007.70 1007.80 1007.98 1008.22 1008.51 1008.85 1009.23
1008.40 1008.45 1008.51 1008.57 1008.63 1008.68 1008.71 1008.72 1008.72 1008.70 1008.67 1008.63 1008.59 1008.56 1008.55 1008.55 1008.59 1008.66 1008.77 1008.91 1009.08 1009.27 1009.44 1009.59 1009.67 1009.68 1009.60 1009.42 1009.16 1008.85 1008.50 1008.15 1007.84 1007.60 1007.44 1007.37 1007.39 1007.49 1007.66 1007.89 1008.17 1008.49 1008.85
1007.71 1007.83 1007.96 1008.08 1008.20 1008.30 1008.37 1008.41 1008.41 1008.38 1008.32 1008.23 1008.12 1008.01 1007.91 1007.82 1007.78 1007.79 1007.86 1007.99 1008.18 1008.42 1008.66 1008.89 1009.07 1009.17 1009.17 1009.07 1008.87 1008.60 1008.28 1007.97 1007.68 1007.45 1007.31 1007.26 1007.30 1007.41 1007.59 1007.82 1008.09 1008.40 1008.74
1006.96 1007.13 1007.32 1007.50 1007.67 1007.81 1007.91 1007.97 1007.98 1007.95 1007.87 1007.75 1007.61 1007.44 1007.28 1007.13 1007.03 1007.00 1007.04 1007.17 1007.37 1007.64 1007.93 1008.23 1008.48 1008.66 1008.73 1008.70 1008.57 1008.36 1008.10 1007.83 1007.60 1007.42 1007.33 1007.33 1007.42 1007.57 1007.78 1008.03 1008.31 1008.60 1008.93
1006.19 1006.40 1006.62 1006.84 1007.03 1007.19 1007.32 1007.39 1007.42 1007.39 1007.31 1007.19 1007.03 1006.85 1006.67 1006.50 1006.37 1006.32 1006.34 1006.46 1006.67 1006.95 1007.27 1007.60 1007.90 1008.12 1008.25 1008.28 1008.21 1008.06 1007.88 1007.69 1007.53 1007.45 1007.44 1007.52 1007.69 1007.91 1008.18 1008.47 1008.77 1009.07 1009.38
1005.43 1005.66 1005.89 1006.12 1006.32 1006.49 1006.62 1006.70 1006.73 1006.72 1006.66 1006.56 1006.42 1006.26 1006.08 1005.93 1005.81 1005.75 1005.77 1005.88 1006.08 1006.35 1006.66 1006.99 1007.29 1007.53 1007.69 1007.75 1007.73 1007.66 1007.55 1007.45 1007.40 1007.43 1007.54 1007.74 1008.02 1008.35 1008.70 1009.05 1009.39 1009.71 1010.02
1004.71 1004.94 1005.18 1005.40 1005.59 1005.75 1005.87 1005.95 1005.98 1005.98 1005.95 1005.88 1005.78 1005.66 1005.53 1005.40 1005.30 1005.25 1005.27 1005.37 1005.54 1005.78 1006.06 1006.35 1006.62 1006.84 1006.99 1007.07 1007.09 1007.07 1007.05 1007.05 1007.12 1007.28 1007.54 1007.88 1008.30 1008.75 1009.21 1009.65 1010.05 1010.41 1010.74
1004.06 1004.29 1004.51 1004.72 1004.89 1005.02 1005.12 1005.18 1005.22 1005.23 1005.22 1005.19 1005.13 1005.06 1004.98 1004.89 1004.82 1004.79 1004.80 1004.88 1005.01 1005.19 1005.40 1005.63 1005.84 1006.01 1006.14 1006.21 1006.25 1006.28 1006.34 1006.45 1006.65 1006.95 1007.36 1007.86 1008.43 1009.02 1009.61 1010.16 1010.64 1011.06 1011.41
1003.51 1003.73 1003.93 1004.11 1004.25 1004.35 1004.42 1004.47 1004.50 1004.51 1004.52 1004.52 1004.50 1004.47 1004.42 1004.38 1004.33 1004.30 1004.30 1004.34 1004.41 1004.53 1004.66 1004.81 1004.94 1005.06 1005.14 1005.20 1005.25 1005.33 1005.46 1005.67 1005.99 1006.43 1006.99 1007.65 1008.37 1009.11 1009.83 1010.50 1011.08 1011.56 1011.96
1003.04 1003.25 1003.43 1003.58 1003.70 1003.77 1003.81 1003.83 1003.85 1003.86 1003.87 1003.88 1003.89 1003.88 1003.86 1003.83 1003.79 1003.75 1003.72 1003.72 1003.73 1003.78 1003.83 1003.90 1003.96 1004.02 1004.06 1004.11 1004.18 1004.29 1004.49 1004.79 1005.23 1005.80 1006.49 1007.29 1008.15 1009.02 1009.87 1010.65 1011.32 1011.89 1012.35
Thickness
5745 5744 5742 5741 5740 5740 5739 5739 5740 5740 5739 5739 5738 5737 5736 5735 5735 5735 5735 5735 5736 5736 5737 5737 5737 5737 5737 5737 5736 5735 5735 5734 5733 5732 5731 5729 5728 5728 5727 5725 5724 5723 5722
5743 5741 5740 5739 5738 5737 5737 5736 5737 5736 5736 5736 5735 5735 5734 5734 5734 5734 5734 5734 5735 5735 5736 5736 5736 5736 5736 5735 5735 5735 5734 5734 5733 5732 5731 5730 5729 5728 5727 5726 5725 5724 5723
5740 5738 5735 5734 5734 5734 5734 5733 5733 5732 5731 5732 5732 5732 5732 5732 5733 5733 5733 5732 5733 5733 5734 5734 5734 5735 5734 5733 5733 5733 5733 5733 5733 5732 5731 5730 5730 5729 5728 5727 5726 5724 5723
5734 5732 5731 5731 5731 5729 5729 5729 5728 5727 5727 5726 5727 5728 5729 5730 5731 5732 5732 5731 5731 5732 5732 5733 5733 5734 5734 5733 5732 5732 5732 5732 5732 5731 5731 5730 5730 5729 5728 5727 5726 5725 5724
5730 5729 5728 5728 5727 5725 5724 5724 5724 5723 5722 5722 5723 5724 5725 5727 5728 5730 5731 5731 5731 5731 5731 5731 5732 5733 5733 5732 5731 5731 5731 5731 5731 5730 5730 5730 5730 5729 5729 5728 5727 5726 5725
5727 5726 5724 5723 5723 5720 5719 5719 5718 5718 5718 5718 5720 5721 5722 5724 5726 5727 5728 5729 5730 5730 5730 5730 5730 5730 5730 5730 5730 5730 5730 5730 5729 5729 5729 5729 5729 5729 5729 5728 5727 5726 5725
5724 5722 5720 5718 5718 5716 5714 5714 5713 5712 5712 5714 5713 5713 5717 5720 5722 5725 5725 5726 5727 5728 5728 5728 5728 5728 5728 5729 5729 5729 5729 5728 5728 5728 5729 5729 5729 5729 5729 5729 5728 5727 5726
5718 5717 5715 5714 5713 5712 5710 5708 5708 5707 5708 5709 5707 5705 5705 5710 5716 5720 5721 5722 5723 5725 5725 5726 5725 5726 5727 5727 5728 5728 5728 5727 5727 5728 5728 5728 5729 5729 5729 5729 5728 5727 5727
5712 5711 5711 5710 5709 5707 5705 5705 5704 5703 5702 5703 5704 5702 5699 5700 5704 5712 5714 5717 5718 5720 5722 5723 5723 5723 5724 5725 5726 5726 5727 5727 5727 5727 5727 5728 5728 5729 5729 5729 5728 5727 5727
5704 5704 5704 5704 5703 5702 5701 5701 5701 5699 5698 5697 5699 5700 5700 5700 5698 5700 5706 5710 5713 5716 5718 5720 5721 5721 5722 5723 5724 5725 5726 5726 5726 5726 5726 5727 5728 5728 5729 5729 5728 5728 5727
5695 5695 5696 5695 5695 5695 5695 5696 5696 5695 5694 5694 5694 5695 5694 5694 5696 5695 5696 5701 5706 5710 5713 5715 5717 5719 5720 5720 5721 5723 5724 5724 5724 5724 5725 5726 5727 5728 5728 5729 5728 5728 5727
5684 5685 5686 5686 5687 5688 5688 5689 5690 5690 5689 5689 5690 5691 5691 5690 5691 5691 5691 5693 5697 5703 5708 5711 5713 5715 5717 5718 5719 5720 5721 5722 5722 5723 5724 5724 5725 5726 5727 5727 5727 5727 5727
5671 5673 5674 5676 5677 5679 5681 5682 5682 5682 5683 5683 5684 5685 5687 5688 5689 5689 5689 5689 5691 5696 5701 5705 5709 5711 5713 5714 5715 5716 5718 5719 5719 5720 5721 5722 5723 5724 5725 5726 5726 5726 5726
5660 5661 5662 5664 5666 5668 5671 5672 5673 5674 5676 5676 5678 5679 5680 5683 5683 5684 5685 5685 5685 5688 5692 5698 5702 5705 5707 5709 5710 5712 5714 5715 5716 5717 5718 5719 5720 5721 5722 5723 5724 5724 5724
5645 5647 5648 5650 5652 5655 5658 5660 5661 5663 5665 5667 5670 5671 5673 5676 5677 5678 5680 5681 5681 5681 5685 5690 5694 5699 5701 5703 5705 5707 5709 5711 5712 5714 5715 5716 5717 5718 5719 5720 5721 5721 5721
5630 5631 5633 5635 5638 5640 5643 5646 5649 5651 5653 5656 5659 5661 5664 5667 5670 5671 5673 5675 5677 5679 5681 5685 5688 5692 5694 5697 5699 5701 5703 5705 5707 5709 5711 5712 5713 5715 5715 5716 5717 5717 5717
5614 5615 5617 5619 5622 5625 5627 5630 5634 5637 5641 5644 5647 5651 5654 5657 5660 5663 5665 5668 5670 5673 5676 5680 5681 5685 5687 5690 5693 5695 5697 5699 5701 5703 5705 5707 5709 5710 5711 5711 5711 5711 5712
5598 5598 5600 5602 5604 5608 5610 5613 5617 5622 5626 5631 5635 5639 5643 5647 5651 5654 5657 5661 5664 5668 5670 5673 5675 5677 5680 5683 5686 5688 5690 5692 5694 5696 5698 5700 5702 5703 5704 5704 5705 5705 5705
5581 5582 5583 5585 5588 5591 5594 5597 5601 5606 5611 5616 5621 5626 5632 5636 5640 5644 5648 5653 5657 5661 5664 5667 5669 5671 5673 5676 5678 5680 5682 5684 5686 5687 5690 5692 5693 5694 5695 5696 5696 5697 5697
5564 5565 5567 5569 5572 5575 5578 5582 5585 5590 5595 5600 5606 5612 5618 5624 5630 5635 5639 5644 5648 5652 5656 5659 5662 5664 5666 5669 5671 5672 5674 5676 5677 5679 5680 5682 5683 5684 5685 5686 5687 5687 5687
5550 5551 5553 5555 5558 5561 5565 5568 5571 5575 5579 5584 5591 5597 5604 5611 5618 5624 5630 5635 5639 5644 5648 5652 5655 5657 5660 5662 5664 5666 5666 5667 5668 5669 5671 5672 5673 5673 5673 5674 5674 5675 5676
5538 5540 5542 5544 5547 5551 5555 5558 5559 5562 5565 5570 5575 5582 5590 5598 5606 5613 5620 5626 5632 5636 5641 5645 5649 5652 5656 5658 5659 5660 5660 5660 5659 5660 5662 5661 5662 5661 5661 5661 5662 5664 5665
5527 5530 5533 5536 5539 5543 5546 5549 5551 5552 5554 5558 5562 5568 5576 5586 5593 5601 5609 5616 5623 5629 5635 5640 5644 5649 5652 5654 5654 5654 5655 5655 5654 5653 5654 5650 5649 5649 5648 5648 5650 5652 5653
5518 5521 5525 5529 5532 5536 5539 5540 5542 5544 5546 5549 5553 5557 5563 5572 5580 5588 5596 5604 5613 5620 5627 5633 5639 5644 5647 5648 5650 5651 5650 5647 5645 5644 5646 5642 5639 5637 5636 5636 5638 5640 5641
5509 5513 5517 5521 5525 5529 5532 5534 5535 5537 5539 5542 5545 5549 5553 5560 5568 5575 5584 5593 5602 5610 5617 5624 5631 5636 5639 5641 5643 5643 5642 5641 5638 5636 5637 5636 5630 5627 5625 5624 5625 5627 5629
5502 5506 5511 5515 5518 5523 5526 5528 5530 5531 5533 5536 5539 5542 5546 5551 5557 5563 5573 5582 5592 5601 5608 5615 5621 5627 5631 5634 5637 5639 5640 5639 5636 5631 5630 5629 5625 5623 5617 5613 5614 5615 5617